Regional Weather Roundup
Issued by NWS Sterling, VA

Home | Current Version | Previous Version | Graphics & Text | Print | Product List | Glossary On
Versions: 1 2 3 4 5 6 7 8 9 10 11 12 13 14 15 16 17 18 19 20 21 22 23 24 25 26 27 28 29 30 31 32 33 34 35 36 37 38 39 40 41 42 43 44 45 46 47 48 49 50
000
ASUS41 KLWX 021610
RWRLWX

REGIONAL WEATHER ROUNDUP
NATIONAL WEATHER SERVICE BALTIMORE MD/WASHINGTON DC
1200 PM EDT THU JUL 02 2015

Note: "FAIR" indicates few or no clouds below 12,000 feet
with no significant weather and/or obstructions to visibility.
 TC=TEMPERATURE CELSIUS

 * =Non NWS site. Station does not report precipitation (e.g. rain,
    snow, etc.), thunder, or fog.

DCZ001-MDZ009-015-VAZ040>042-051-053>054-021700-
WASHINGTON METRO

CITY           SKY/WX    TMP DP  RH WIND       PRES   REMARKS
WASHINGTON NAT CLOUDY    74  65  73 N7        29.90F
DULLES         CLOUDY    73  61  65 N8        29.91S
ANDREWS AFB    PTSUNNY   70  66  86 N7        29.90S
FT BELVOIR     PTSUNNY   71  65  80 VRB2      29.90S
QUANTICO       CLOUDY    74  62  66 NE10      29.90F
COLLEGE PARK*  CLOUDY    70  66  88 CALM      29.90S
MANASSAS*      CLOUDY    72  68  88 CALM      29.91S
GAITHERSBURG*  CLOUDY    70  63  78 CALM      29.95S

$$

MDZ006>007-011-014-021700-
BALTIMORE METRO

CITY           SKY/WX    TMP DP  RH WIND       PRES   REMARKS
BWI AIRPORT    CLOUDY    72  65  78 NE5       29.90S
MD SCIENCE CTR   N/A     73  62  68 MISG      29.91F
MARTIN STATE   PTSUNNY   70  68  94 CALM      29.92S
ANNAPOLIS      CLOUDY    72  66  81 N7        29.89F
FORT MEADE*    CLOUDY    68  64  88 CALM      29.92F

$$

MDZ012-015-019>023-021700-
MARYLAND EASTERN SHORE

CITY           SKY/WX    TMP DP  RH WIND       PRES   REMARKS
OCEAN CITY     PTSUNNY   77  72  84 SW10      29.86R HAZE
SALISBURY      CLOUDY    71  68  90 N14G24    29.86R
BAY BRIDGE AP*   N/A     72  64  78 NE7       29.89F
CAMBRIDGE*       N/A     72  68  88 N7        29.87F
EASTON*        CLOUDY    72  72 100 NE6       29.92F FOG

$$

MDZ017>025-021700-
SOUTHERN MARYLAND

CITY           SKY/WX    TMP DP  RH WIND       PRES   REMARKS
PATUXENT RIVER LGT RAIN  74  69  85 N9        29.87F
ST INIGOES     CLOUDY    74  67  78 N7        29.87S
LEONARDTOWN*   PTSUNNY   73  64  73 N6        29.89F

$$

MDZ003>005-021700-
NORTH CENTRAL MARYLAND

CITY           SKY/WX    TMP DP  RH WIND       PRES   REMARKS
FREDERICK*     CLOUDY    72  68  88 CALM      29.95S FOG
HAGERSTOWN APT CLOUDY    75  61  61 VRB3      29.92S
WESTMINSTER*   CLOUDY    70  66  88 CALM      29.93S

$$

MDZ501>502-021700-
WESTERN MARYLAND

CITY           SKY/WX    TMP DP  RH WIND       PRES   REMARKS
OAKLAND*       PTSUNNY   64  64 100 W3        30.01S
CUMBERLAND*    PTSUNNY   72  63  73 CALM      29.98R

$$

VAZ025>031-021700-
SHENANDOAH VALLEY

CITY           SKY/WX    TMP DP  RH WIND       PRES   REMARKS
WINCHESTER*    NOT AVBL
FRONT ROYAL*   CLOUDY    68  66  94 CALM      29.93
LURAY*         NOT AVBL
NEW MARKET*    NOT AVBL
STAUNTON*      NOT AVBL
WAYNESBORO*    NOT AVBL

$$

WVZ021-048>050-054>055-021700-
EASTERN WEST VIRGINIA PANHANDLE

CITY           SKY/WX    TMP DP  RH WIND       PRES   REMARKS
MARTINSBURG    CLOUDY    71  65  81 S3        29.93S
PETERSBURG*    NOT AVBL

$$

VAZ036>039-050-021700-
CENTRAL FOOTHILLS

CITY           SKY/WX    TMP DP  RH WIND       PRES   REMARKS
CHARLOTTESVILL CLOUDY    75  62  64 N7        29.92S
CULPEPER*      NOT AVBL
ORANGE*        NOT AVBL
GORDONSVILLE*  CLOUDY    75  64  69 NE6       29.91R
WARRENTON*     NOT AVBL

$$

VAZ055>057-021700-
NORTH AND CENTRAL PIEDMONT

CITY           SKY/WX    TMP DP  RH WIND       PRES   REMARKS
FREDERICKSBRG* NOT AVBL
STAFFORD*      NOT AVBL

$$

NCZ024-NYZ072-PAZ021-071-VAZ022-071-021700-
OTHER REGIONAL OBSERVATIONS

CITY           SKY/WX    TMP DP  RH WIND       PRES   REMARKS
NEW YORK CITY  MOSUNNY   76  60  57 CALM      29.93F
PHILADELPHIA   CLOUDY    73  62  68 NE8       29.91S
PITTSBURGH     CLOUDY    71  60  68 N6        29.97R
ROANOKE        PTSUNNY   76  65  68 W7        29.96S
RICHMOND       CLOUDY    81  70  69 SW8       29.87F
RALEIGH        PTSUNNY   85  68  56 W9        29.93F

$$

ANZ530>537-021700-
MARINE OBSERVATIONS

STATION/POSITION TIME  TEMP    WIND        PRES
                       AIR SEA DIR/SP/G
                 (UTC) (F)     (DEG/KT/KT) (MB)
THOMAS PT LIGHT  1600           30/ 13       N/A
BALT KEY BRIDGE  1500   70      10/  8/  9 1012.5F
COVE POINT       1500   70      30/ 12/ 15 1012.5F
LEWISETTA        1500   74 81   30/  6/ 10 1011.2F
SOLOMONS ISLAND  1500      79                N/A
PINEY POINT      1500           40/ 11/ 13   N/A

$$




USA.gov is the U.S. government's official web portal to all federal, state and local government web resources and services.